Location: Coupvray
(48.8929°N, 2.7967°E)
Time: 08:46:03
(UTC+00:00)

Cosmos 1140 Rocket - Pass Details

Date: 14 July 2020
Orbit: 744 x 768 km, 74.1° (Epoch: 14 August)

Event Time Altitude Azimuth Distance (km) Brightness Sun altitude
Exits shadow 02:32:13 15° 228° (SW) 1,981 5.0 -11.2°
Maximum altitude 02:36:23 48° 299° (WNW) 996 4.0 -10.8°
Drops below altitude 10° 02:41:28 10° 14° (NNE) 2,315 7.1 -10.3°
Sets 02:43:57 0° 20° (NNE) 3,247 8.3 -10.0°
